Location: Colonia Mina de C?rbuni
(46.1667°N, 22.7167°E)
Time: 15:06:20
(UTC+00:00)

S-56A Canister/Altair - Pass Details

Date: 13 April 2024
Orbit: 638 x 2488 km, 38.9° (Epoch: 19 May)

Event Time Altitude Azimuth Distance (km) Brightness Sun altitude
Rises 20:47:27 0° 270° (W) 4,443 11.8 -29.9°
Reaches altitude 10° 20:50:07 10° 265° (W) 3,689 11.2 -30.1°
Maximum altitude 20:59:46 55° 192° (SSW) 2,290 9.5 -30.9°
Enters shadow 21:01:13 53° 170° (S) 2,403 9.5 -31.0°
